Ketchikan, AK

6:17 AM AKST on December 18, 2018 (GMT -0900)
Ketchikan International

Weather History for PAKT - February, 2018

Change the Weather History Date:

Saturday, February 3, 2018

  Actual Average Record
Temperature  
Mean Temperature 30 °F -  
Max Temperature 37 °F 41 °F 54 °F (1977)
Min Temperature 24 °F 30 °F 10 °F (2004)
Degree Days  
Heating Degree Days 34    
Moisture  
Dew Point 21 °F    
Average Humidity 65    
Maximum Humidity 80    
Minimum Humidity 48    
Precipitation  
Precipitation 0.00 in - - ()
Sea Level Pressure  
Sea Level Pressure 30.22 in    
Wind  
Wind Speed 6 mph (NW)    
Max Wind Speed 12 mph    
Max Gust Speed -    
Visibility 10 miles    
Events Snow    
Averages and records for this station are not official NWS values.
T = Trace of Precipitation, MM = Missing Value Source: NWS Daily Summary

Daily Weather History Graph

Daily Weather History Graph

Search for Another Location

Airport or City:

Astronomy

Feb. 03, 2018 Rise Set
Actual Time 7:34 AM AKST 4:27 PM AKST
Civil Twilight 6:54 AM AKST 5:07 PM AKST
Nautical Twilight 6:10 AM AKST 5:51 PM AKST
Astronomical Twilight 5:28 AM AKST 6:33 PM AKST
Moon 9:03 PM AKST (2/3) 9:11 AM AKST (2/3)
Length of Visible Light 10h 12m
Length of Day
8h 52m
Waning Gibbous, 86% of the Moon is Illuminated
Feb 3
Waning Gibbous
Feb 7
Last Quarter
Feb 15
New
Feb 22
First Quarter
Mar 1
Full

Hourly Weather History & Observations

Time (AKST) Temp. Windchill Dew Point Humidity Pressure Visibility Wind Dir Wind Speed Gust Speed Precip Events Conditions
12:53 AM 36.0 °F 29.6 °F 18.0 °F 48% 30.19 in - NW 8.1 mph - N/A   Overcast
1:53 AM 36.0 °F 30.3 °F 19.0 °F 50% 30.22 in 10.0 mi NW 6.9 mph - N/A   Overcast
2:53 AM 37.0 °F 30.4 °F 19.0 °F 48% 30.23 in 10.0 mi NW 9.2 mph - N/A   Mostly Cloudy
3:16 AM 34.0 °F 25.5 °F 18.0 °F 52% 30.22 in - WNW 11.5 mph - N/A   Partly Cloudy
3:53 AM 34.0 °F 26.6 °F 18.0 °F 52% 30.25 in 10.0 mi WNW 9.2 mph - N/A   Clear
4:53 AM 33.1 °F 24.9 °F 18.0 °F 54% 30.25 in 10.0 mi WNW 10.4 mph - N/A   Clear
5:53 AM 34.0 °F 25.5 °F 17.1 °F 50% 30.25 in 10.0 mi WNW 11.5 mph - N/A   Clear
6:03 AM 25.0 °F 15.5 °F 17.1 °F 72% 30.24 in 10.0 mi WNW 9.2 mph - N/A   Clear
6:53 AM 24.8 °F 15.3 °F 17.6 °F 74% 30.27 in 10.0 mi WNW 9.2 mph - N/A   Clear
7:53 AM 24.8 °F 16.9 °F 17.6 °F 74% 30.27 in 10.0 mi NW 6.9 mph - N/A   Partly Cloudy
8:53 AM 26.6 °F 20.0 °F 19.4 °F 74% 30.30 in 10.0 mi NW 5.8 mph - N/A   Scattered Clouds
9:53 AM 28.4 °F 23.3 °F 21.2 °F 74% 30.30 in 10.0 mi NW 4.6 mph - N/A   Scattered Clouds
10:53 AM 28.4 °F 24.6 °F 21.2 °F 74% 30.30 in 10.0 mi NW 3.5 mph - N/A   Scattered Clouds
11:53 AM 30.2 °F 26.7 °F 21.2 °F 69% 30.30 in 10.0 mi NW 3.5 mph - N/A   Overcast
12:53 PM 30.2 °F 24.3 °F 23.0 °F 75% 30.30 in 10.0 mi NNW 5.8 mph - N/A   Overcast
1:53 PM 30.2 °F - 23.0 °F 75% 30.29 in 10.0 mi Calm Calm - N/A Snow Light Snow
2:53 PM 30.2 °F - 24.8 °F 80% 30.25 in 10.0 mi Calm Calm - N/A   Overcast
3:53 PM 32.0 °F - 24.8 °F 75% 30.23 in 10.0 mi Calm Calm - N/A   Overcast
4:53 PM 32.0 °F - 21.2 °F 64% 30.21 in 10.0 mi Calm Calm - N/A   Overcast
5:53 PM 32.0 °F 28.7 °F 24.8 °F 75% 30.18 in 10.0 mi West 3.5 mph - N/A   Overcast
6:53 PM 35.1 °F - 21.9 °F 59% 30.15 in 10.0 mi Calm Calm - N/A   Overcast
7:53 PM 32.0 °F - 21.2 °F 64% 30.13 in 10.0 mi Calm Calm - N/A   Overcast
8:53 PM 32.0 °F - 23.0 °F 69% 30.11 in 10.0 mi Calm Calm - N/A   Overcast
9:53 PM 36.0 °F - 23.0 °F 59% 30.10 in 10.0 mi Calm Calm - N/A   Overcast
10:53 PM 36.0 °F - 23.0 °F 59% 30.07 in 10.0 mi Calm Calm - N/A   Overcast
11:53 PM 36.0 °F 33.3 °F 25.0 °F 64% 30.03 in 10.0 mi NNW 3.5 mph - N/A   Overcast